| time (UTC) | temp F | wind direction | speed MPH | gust MPH | rain 1hr in | rain 24hr in | rain mn in | humidity % | barometer mb |
| 20260902000031 | 59 | 284 | 0.0 | 0.0 | 0.00 | 0.00 | 0.00 | 90 | 1019.7 |
| 20260901234520 | 58 | 284 | 0.0 | 0.0 | 0.00 | 0.00 | 0.00 | 90 | 1019.8 |
| 20260901233019 | 59 | 284 | 0.0 | 0.0 | 0.00 | 0.00 | 0.00 | 90 | 1019.6 |
| 20260901231517 | 59 | 284 | 0.0 | 0.0 | 0.00 | 0.00 | 0.00 | 89 | 1019.6 |
| 20260901230017 | 59 | 284 | 0.0 | 0.0 | 0.00 | 0.00 | 0.00 | 89 | 1019.7 |
| 20260901224513 | 60 | 284 | 0.0 | 0.0 | 0.00 | 0.00 | 0.00 | 89 | 1019.8 |
| 20260901223011 | 60 | 284 | 0.0 | 0.0 | 0.00 | 0.00 | 0.00 | 89 | 1020.0 |
| 20260901221510 | 60 | 284 | 0.0 | 0.0 | 0.00 | 0.00 | 0.00 | 89 | 1020.2 |
| 20260901220013 | 60 | 284 | 0.0 | 0.0 | 0.00 | 0.00 | 0.00 | 89 | 1020.2 |
| 20260901214506 | 60 | 284 | 0.0 | 0.0 | 0.00 | 0.00 | 0.00 | 88 | 1020.1 |
| 20260901213005 | 60 | 284 | 0.0 | 0.0 | 0.00 | 0.00 | 0.00 | 88 | 1020.1 |
| 20260901211505 | 60 | 284 | 0.0 | 0.0 | 0.00 | 0.00 | 0.00 | 88 | 1020.1 |
| 20260901210004 | 60 | 284 | 0.0 | 0.0 | 0.00 | 0.00 | 0.00 | 88 | 1019.9 |
| 20260901204504 | 60 | 284 | 0.0 | 0.0 | 0.00 | 0.00 | 0.00 | 87 | 1019.8 |
| 20260901203003 | 60 | 284 | 0.0 | 0.0 | 0.00 | 0.00 | 0.00 | 87 | 1019.9 |
| 20260901201502 | 61 | 284 | 0.0 | 0.0 | 0.00 | 0.00 | 0.00 | 86 | 1019.8 |
| 20260901200001 | 61 | 284 | 0.0 | 0.0 | 0.00 | 0.00 | 0.00 | 85 | 1019.7 |
| 20260901194501 | 61 | 284 | 0.0 | 0.0 | 0.00 | 0.00 | 0.00 | 84 | 1019.7 |
| 20260901193106 | 62 | 284 | 0.0 | 0.0 | 0.00 | 0.00 | 0.00 | 84 | 1019.7 |
| 20260901191612 | 63 | 284 | 0.0 | 0.0 | 0.00 | 0.00 | 0.00 | 83 | 1019.7 |
| 20260901190133 | 63 | 284 | 0.0 | 0.0 | 0.00 | 0.00 | 0.00 | 82 | 1019.6 |
| 20260901184558 | 64 | 284 | 0.0 | 0.0 | 0.00 | 0.00 | 0.00 | 81 | 1019.6 |
| 20260901183100 | 65 | 284 | 0.0 | 0.0 | 0.00 | 0.00 | 0.00 | 80 | 1019.5 |
| 20260901181659 | 65 | 284 | 0.0 | 0.0 | 0.00 | 0.00 | 0.00 | 79 | 1019.5 |
| 20260901181556 | 66 | 284 | 0.0 | 0.0 | 0.00 | 0.00 | 0.00 | 79 | 1019.6 |
| 20260901181044 | 66 | 284 | 0.0 | 0.0 | 0.00 | 0.00 | 0.00 | 79 | 1019.6 |
| 20260901180557 | 67 | 284 | 0.0 | 0.0 | 0.00 | 0.00 | 0.00 | 78 | 1019.7 |
| 20260901180147 | 66 | 284 | 0.0 | 0.0 | 0.00 | 0.00 | 0.00 | 78 | 1019.4 |
| 20260901180045 | 67 | 284 | 0.0 | 0.0 | 0.00 | 0.00 | 0.00 | 78 | 1019.7 |
| 20260901175556 | 67 | 284 | 0.0 | 0.0 | 0.00 | 0.00 | 0.00 | 77 | 1019.7 |
| 20260901175103 | 68 | 284 | 0.0 | 0.0 | 0.00 | 0.00 | 0.00 | 77 | 1019.6 |
| 20260901174656 | 67 | 284 | 0.0 | 0.0 | 0.00 | 0.00 | 0.00 | 76 | 1019.5 |
| 20260901174555 | 68 | 284 | 0.0 | 0.0 | 0.00 | 0.00 | 0.00 | 76 | 1019.6 |
| 20260901174043 | 68 | 284 | 0.0 | 0.0 | 0.00 | 0.00 | 0.00 | 76 | 1019.6 |
| 20260901173556 | 68 | 284 | 0.0 | 0.0 | 0.00 | 0.00 | 0.00 | 75 | 1019.6 |
| 20260901173103 | 69 | 284 | 0.0 | 0.0 | 0.00 | 0.00 | 0.00 | 75 | 1019.5 |
| 20260901172553 | 69 | 284 | 0.0 | 0.0 | 0.00 | 0.00 | 0.00 | 75 | 1019.5 |
| 20260901172101 | 69 | 284 | 0.0 | 0.0 | 0.00 | 0.00 | 0.00 | 74 | 1019.4 |
| 20260901171651 | 69 | 284 | 0.0 | 0.0 | 0.00 | 0.00 | 0.00 | 74 | 1019.2 |
| 20260901171550 | 69 | 284 | 0.0 | 0.0 | 0.00 | 0.00 | 0.00 | 74 | 1019.4 |
| 20260901171041 | 69 | 284 | 0.0 | 0.0 | 0.00 | 0.00 | 0.00 | 73 | 1019.5 |
| 20260901170552 | 70 | 284 | 0.0 | 0.0 | 0.00 | 0.00 | 0.00 | 73 | 1019.5 |
| 20260901170139 | 69 | 284 | 0.0 | 0.0 | 0.00 | 0.00 | 0.00 | 72 | 1019.3 |
| 20260901170038 | 70 | 284 | 0.0 | 0.0 | 0.00 | 0.00 | 0.00 | 72 | 1019.5 |
| 20260901165613 | 70 | 284 | 0.0 | 0.0 | 0.00 | 0.00 | 0.00 | 71 | 1019.5 |
| 20260901165134 | 70 | 284 | 0.0 | 0.0 | 0.00 | 0.00 | 0.00 | 72 | 1019.5 |
| 20260901164518 | 70 | 287 | 0.0 | 0.0 | 0.00 | 0.00 | 0.00 | 72 | 1019.2 |
| 20260901163034 | 70 | 360 | 0.0 | 0.0 | 0.00 | 0.00 | 0.00 | 73 | 1019.3 |
| 20260901161522 | 70 | 294 | 0.0 | 0.0 | 0.00 | 0.00 | 0.00 | 72 | 1019.4 |
| 20260901160016 | 70 | 360 | 0.0 | 0.0 | 0.00 | 0.17 | 0.00 | 73 | 1019.3 |
| 20260901154532 | 70 | 360 | 0.0 | 0.0 | 0.00 | 0.17 | 0.00 | 72 | 1019.3 |
| 20260901153024 | 70 | 360 | 0.0 | 0.0 | 0.00 | 0.17 | 0.00 | 72 | 1019.3 |
| 20260901151515 | 70 | 360 | 0.0 | 0.0 | 0.00 | 0.17 | 0.00 | 73 | 1019.3 |
| 20260901150013 | 70 | 257 | 0.0 | 0.0 | 0.00 | 0.24 | 0.00 | 74 | 1019.2 |
| 20260901144518 | 69 | 255 | 0.0 | 0.0 | 0.00 | 0.24 | 0.00 | 76 | 1019.2 |
| 20260901143011 | 69 | 255 | 0.0 | 0.0 | 0.00 | 0.24 | 0.00 | 76 | 1019.3 |
| 20260901141515 | 69 | 246 | 0.0 | 0.0 | 0.00 | 0.24 | 0.00 | 76 | 1019.3 |
| 20260901140010 | 70 | 360 | 0.0 | 0.0 | 0.00 | 0.25 | 0.00 | 76 | 1019.1 |
| 20260901134509 | 70 | 360 | 0.0 | 0.0 | 0.00 | 0.25 | 0.00 | 77 | 1019.2 |
| 20260901133008 | 69 | 360 | 0.0 | 0.0 | 0.00 | 0.25 | 0.00 | 77 | 1019.3 |
| 20260901131509 | 68 | 360 | 0.0 | 0.0 | 0.00 | 0.25 | 0.00 | 80 | 1019.4 |
| 20260901130007 | 68 | 360 | 0.0 | 0.0 | 0.00 | 0.26 | 0.00 | 79 | 1019.7 |
| 20260901124507 | 68 | 360 | 0.0 | 0.0 | 0.00 | 0.26 | 0.00 | 78 | 1019.7 |
| 20260901123005 | 68 | 360 | 0.0 | 0.0 | 0.00 | 0.26 | 0.00 | 77 | 1019.6 |
| 20260901121506 | 68 | 360 | 0.0 | 0.0 | 0.00 | 0.26 | 0.00 | 77 | 1019.6 |
| 20260901120003 | 68 | 360 | 0.0 | 0.0 | 0.00 | 0.28 | 0.00 | 75 | 1019.6 |
| 20260901114702 | 69 | 289 | 0.0 | 0.0 | 0.00 | 0.28 | 0.00 | 80 | 1019.5 |
| 20260901114559 | 69 | 289 | 0.0 | 0.0 | 0.00 | 1.42 | 0.00 | 79 | 1019.6 |
| 20260901114045 | 69 | 360 | 0.0 | 0.0 | 0.00 | 1.42 | 0.00 | 78 | 1019.6 |
| 20260901113559 | 70 | 287 | 0.0 | 0.0 | 0.00 | 1.42 | 0.00 | 78 | 1019.6 |
| 20260901113151 | 69 | 360 | 0.0 | 0.0 | 0.00 | 0.28 | 0.00 | 79 | 1019.5 |
| 20260901113047 | 70 | 285 | 0.0 | 0.0 | 0.00 | 1.42 | 0.00 | 79 | 1019.7 |
| 20260901112559 | 70 | 292 | 0.0 | 0.0 | 0.00 | 1.42 | 0.00 | 79 | 1019.7 |
| 20260901112045 | 70 | 290 | 0.0 | 0.0 | 0.00 | 1.42 | 0.00 | 79 | 1019.7 |
| 20260901111618 | 70 | 297 | 0.0 | 0.0 | 0.00 | 1.42 | 0.00 | 81 | 1019.7 |
| 20260901111507 | 69 | 360 | 0.0 | 0.0 | 0.00 | 0.28 | 0.00 | 81 | 1019.5 |
| 20260901111043 | 69 | 284 | 0.0 | 0.0 | 0.00 | 1.42 | 0.00 | 82 | 1019.6 |
| 20260901110555 | 69 | 298 | 0.0 | 0.0 | 0.00 | 1.42 | 0.00 | 83 | 1019.6 |
| 20260901110103 | 68 | 360 | 0.0 | 0.0 | 0.00 | 1.54 | 0.00 | 84 | 1019.6 |
| 20260901105553 | 68 | 360 | 0.0 | 0.0 | 0.00 | 1.54 | 0.00 | 83 | 1019.7 |
| 20260901105043 | 68 | 299 | 0.0 | 0.0 | 0.00 | 1.54 | 0.00 | 83 | 1019.7 |
| 20260901104554 | 68 | 295 | 0.0 | 0.0 | 0.00 | 1.54 | 0.00 | 83 | 1019.7 |
| 20260901104501 | 67 | 295 | 0.0 | 0.0 | 0.00 | 0.31 | 0.00 | 83 | 1019.4 |
| 20260901104101 | 67 | 294 | 0.0 | 0.0 | 0.00 | 1.54 | 0.00 | 83 | 1019.7 |
| 20260901103553 | 68 | 360 | 0.0 | 0.0 | 0.00 | 1.54 | 0.00 | 82 | 1019.7 |
| 20260901103101 | 68 | 286 | 0.0 | 0.0 | 0.00 | 1.54 | 0.00 | 82 | 1019.7 |
| 20260901102553 | 68 | 298 | 0.0 | 0.0 | 0.00 | 1.54 | 0.00 | 82 | 1019.6 |
| 20260901102102 | 68 | 304 | 0.0 | 0.0 | 0.00 | 1.54 | 0.00 | 83 | 1019.6 |
| 20260901101653 | 67 | 286 | 0.0 | 0.0 | 0.00 | 0.31 | 0.00 | 84 | 1019.5 |
| 20260901101553 | 68 | 247 | 0.0 | 0.0 | 0.00 | 1.54 | 0.00 | 84 | 1019.7 |
| 20260901101042 | 67 | 296 | 0.0 | 0.0 | 0.00 | 1.54 | 0.00 | 85 | 1019.6 |
| 20260901100615 | 67 | 292 | 0.0 | 0.0 | 0.00 | 1.54 | 0.00 | 86 | 1019.7 |
| 20260901100101 | 66 | 294 | 0.0 | 0.0 | 0.00 | 1.54 | 0.00 | 86 | 1019.6 |
| 20260901100013 | 66 | 288 | 0.0 | 0.0 | 0.00 | 0.31 | 0.00 | 86 | 1019.5 |
| 20260901095550 | 66 | 286 | 0.0 | 0.0 | 0.00 | 1.54 | 0.00 | 86 | 1019.7 |
| 20260901095058 | 66 | 360 | 0.0 | 0.0 | 0.00 | 1.54 | 0.00 | 86 | 1019.8 |
| 20260901094651 | 65 | 294 | 0.0 | 0.0 | 0.00 | 0.31 | 0.00 | 86 | 1019.6 |
| 20260901094549 | 65 | 287 | 0.0 | 0.0 | 0.00 | 1.54 | 0.00 | 86 | 1019.8 |
| 20260901094057 | 65 | 360 | 0.0 | 0.0 | 0.00 | 1.54 | 0.00 | 86 | 1019.8 |
| 20260901093548 | 65 | 288 | 0.0 | 0.0 | 0.00 | 1.54 | 0.00 | 86 | 1019.7 |
| 20260901093157 | 64 | 286 | 0.0 | 0.0 | 0.00 | 0.31 | 0.00 | 86 | 1019.5 |
| 20260901093056 | 65 | 289 | 0.0 | 0.0 | 0.00 | 1.54 | 0.00 | 86 | 1019.6 |
| 20260901092547 | 65 | 360 | 0.0 | 0.0 | 0.00 | 1.54 | 0.00 | 87 | 1019.6 |
| 20260901092102 | 65 | 360 | 0.0 | 0.0 | 0.00 | 1.54 | 0.00 | 87 | 1019.6 |
| 20260901091543 | 64 | 360 | 0.0 | 0.0 | 0.00 | 0.31 | 0.00 | 87 | 1019.4 |
| 20260901090051 | 64 | 360 | 0.0 | 0.0 | 0.00 | 0.31 | 0.00 | 87 | 1019.3 |
| 20260901084537 | 64 | 360 | 0.0 | 0.0 | 0.00 | 0.31 | 0.00 | 87 | 1019.2 |
| 20260901083036 | 64 | 360 | 0.0 | 0.0 | 0.00 | 0.31 | 0.00 | 88 | 1019.2 |
| 20260901081534 | 64 | 360 | 0.0 | 0.0 | 0.00 | 0.31 | 0.00 | 89 | 1019.0 |
| 20260901080033 | 64 | 360 | 0.0 | 0.0 | 0.00 | 0.31 | 0.00 | 90 | 1019.0 |
| 20260901074530 | 63 | 360 | 0.0 | 0.0 | 0.00 | 0.31 | 0.00 | 91 | 1018.9 |
| 20260901073030 | 63 | 285 | 0.0 | 0.0 | 0.00 | 0.31 | 0.00 | 91 | 1018.8 |
| 20260901071528 | 63 | 360 | 0.0 | 0.0 | 0.00 | 0.31 | 0.00 | 92 | 1018.8 |
| 20260901070038 | 63 | 287 | 0.0 | 0.0 | 0.00 | 0.31 | 0.00 | 93 | 1018.8 |
| 20260901064524 | 62 | 360 | 0.0 | 0.0 | 0.00 | 0.31 | 0.00 | 93 | 1018.7 |
| 20260901063021 | 62 | 360 | 0.0 | 0.0 | 0.00 | 0.31 | 0.00 | 93 | 1018.5 |
| 20260901061520 | 61 | 360 | 0.0 | 0.0 | 0.00 | 0.31 | 0.00 | 93 | 1018.5 |
| 20260901060032 | 61 | 360 | 0.0 | 0.0 | 0.00 | 0.31 | 0.00 | 93 | 1018.5 |
| 20260901054524 | 61 | 360 | 0.0 | 0.0 | 0.00 | 0.31 | 0.00 | 93 | 1018.5 |
| 20260901053016 | 61 | 360 | 0.0 | 0.0 | 0.00 | 0.31 | 0.00 | 93 | 1018.4 |
| 20260901051518 | 61 | 360 | 0.0 | 0.0 | 0.00 | 0.31 | 0.00 | 93 | 1018.3 |
| 20260901050013 | 61 | 285 | 0.0 | 0.0 | 0.00 | 0.31 | 0.00 | 94 | 1018.1 |
| 20260901044511 | 61 | 360 | 0.0 | 0.0 | 0.00 | 0.31 | 0.00 | 93 | 1017.9 |
| 20260901043014 | 60 | 360 | 0.0 | 0.0 | 0.00 | 0.31 | 0.00 | 93 | 1017.6 |
| 20260901041508 | 60 | 360 | 0.0 | 0.0 | 0.00 | 0.31 | 0.00 | 93 | 1017.4 |
| 20260901040007 | 60 | 360 | 0.0 | 0.0 | 0.00 | 0.31 | 0.00 | 93 | 1017.4 |
| 20260901034511 | 60 | 360 | 0.0 | 0.0 | 0.00 | 0.31 | 0.00 | 93 | 1017.4 |
| 20260901033019 | 60 | 360 | 0.0 | 0.0 | 0.00 | 0.31 | 0.00 | 93 | 1017.4 |
| 20260901031505 | 60 | 360 | 0.0 | 0.0 | 0.00 | 0.31 | 0.00 | 93 | 1017.4 |
| 20260901030006 | 60 | 360 | 0.0 | 0.0 | 0.00 | 0.31 | 0.00 | 93 | 1017.3 |
| 20260901024504 | 60 | 360 | 0.0 | 0.0 | 0.00 | 0.31 | 0.00 | 93 | 1017.4 |
| 20260901023002 | 60 | 360 | 0.0 | 0.0 | 0.00 | 0.31 | 0.00 | 93 | 1017.3 |
| 20260901021600 | 60 | 360 | 0.0 | 0.0 | 0.00 | 0.31 | 0.00 | 92 | 1017.1 |
| 20260901014559 | 60 | 360 | 0.0 | 0.0 | 0.00 | 0.33 | 0.00 | 92 | 1017.1 |
| 20260901013106 | 60 | 360 | 0.0 | 0.0 | 0.00 | 0.33 | 0.00 | 92 | 1017.0 |
| 20260901011558 | 60 | 288 | 0.0 | 0.0 | 0.00 | 0.33 | 0.00 | 92 | 1016.9 |
| 20260901010059 | 60 | 360 | 0.0 | 0.0 | 0.00 | 0.33 | 0.00 | 92 | 1016.9 |
| 20260901004600 | 60 | 306 | 0.0 | 0.0 | 0.00 | 0.33 | 0.00 | 92 | 1017.0 |
| 20260901003102 | 60 | 360 | 0.0 | 0.0 | 0.00 | 0.33 | 0.00 | 92 | 1016.9 |
| 20260901001555 | 61 | 360 | 0.0 | 0.0 | 0.00 | 0.33 | 0.00 | 93 | 1017.0 |